Temperature
25 24 23 24 27 28 30 33 34 34 34 34 33 34 33 31 29 27 26 25 24 24 24 22 21 21 20 19 19 19 19 19 19 19 19 19 19 19 19 19 19 19 19 19 19 19 19 20 20
25 24 25 27 28 27 31 33 33 34 34 34 33 33 32 30 29 27 26 25 23 24 23 22 21 21 20 19 19 19 19 19 19 19 19 19 19 19 19 19 19 19 19 19 19 19 19 19 20
25 25 27 30 29 28 32 33 34 34 34 34 33 32 31 29 28 27 25 24 23 23 23 23 22 21 20 20 19 19 19 19 19 19 19 19 19 19 19 19 19 19 19 19 19 19 19 19 19
25 28 29 31 31 33 34 34 35 34 34 33 34 32 29 28 28 26 25 24 23 22 22 23 22 21 21 20 20 20 20 20 20 19 19 19 19 19 19 19 19 19 19 19 19 19 19 19 19
27 30 32 32 33 35 35 35 35 34 34 34 33 31 28 27 27 26 25 24 23 22 22 23 22 22 21 21 20 20 20 20 20 20 20 19 19 19 19 19 19 19 19 19 19 19 19 19 19
29 32 32 32 33 35 35 35 35 35 34 34 33 31 28 27 26 25 25 25 24 22 22 23 23 22 21 21 21 20 20 20 20 20 20 20 19 19 19 19 19 19 19 19 19 19 19 19 19
30 32 32 33 34 34 35 35 35 35 34 33 33 32 28 27 26 26 25 25 25 23 22 23 23 22 22 21 21 20 20 20 20 20 20 20 20 19 19 19 19 19 19 19 19 19 19 19 19
31 32 32 34 35 35 35 35 35 34 33 33 33 32 28 27 26 26 25 26 25 23 22 23 23 22 22 21 21 21 20 20 20 20 20 19 19 19 19 19 19 19 19 19 19 19 19 19 19
31 31 32 34 35 35 35 35 35 34 33 32 32 31 29 27 27 26 25 25 25 24 22 22 22 22 22 21 21 21 21 20 20 20 20 19 19 19 19 19 19 19 19 19 19 19 19 18 19
32 31 33 35 35 35 35 35 35 35 34 33 32 30 29 27 27 26 25 25 25 24 22 22 21 21 21 20 20 21 21 21 20 20 20 20 19 19 18 18 18 19 19 19 19 19 18 18 18
33 32 34 35 35 35 35 35 35 35 34 33 32 30 29 28 27 26 25 25 24 23 23 22 21 21 21 20 20 20 20 20 20 20 19 19 19 19 19 19 19 19 19 19 19 19 18 18 18
33 33 34 34 34 34 34 34 34 34 34 32 32 31 29 28 27 26 25 25 24 23 23 22 21 21 21 21 21 20 20 20 20 20 19 19 19 19 19 19 19 19 19 19 19 18 18 18 18
33 33 33 33 33 33 33 34 34 34 34 33 32 31 30 29 28 27 25 25 24 23 22 22 21 21 21 21 21 21 20 21 20 20 20 19 19 19 19 19 19 19 19 19 19 19 18 18 18
32 33 33 33 33 33 33 34 34 34 34 33 32 31 31 30 29 27 26 25 24 23 22 22 21 21 20 21 21 21 21 21 21 21 20 20 19 19 19 19 19 19 19 19 19 19 19 18 18
31 31 32 33 33 33 33 33 34 33 33 33 32 32 31 30 29 28 27 26 25 24 23 22 21 21 20 20 20 21 20 20 21 20 20 20 20 19 19 19 19 19 19 19 19 19 19 19 19
31 31 31 33 34 34 33 31 34 34 33 33 32 32 31 29 29 28 27 26 25 24 24 22 22 21 20 20 20 20 20 20 21 21 20 20 20 19 19 19 19 19 19 19 19 19 19 19 19
31 30 31 33 34 34 33 32 33 33 33 32 32 31 30 28 27 27 26 26 25 24 24 23 22 21 20 20 20 20 20 20 20 21 20 20 20 19 19 19 19 19 19 19 19 19 19 19 19
31 32 32 33 34 33 32 32 33 32 32 31 31 30 28 27 26 25 25 24 24 23 23 22 21 21 20 20 20 20 20 20 20 20 20 20 20 19 19 19 19 19 19 19 19 19 19 18 18
30 30 31 32 33 31 31 31 32 32 31 31 29 28 26 25 24 24 23 23 23 22 22 21 21 20 20 20 20 20 19 20 20 20 20 20 20 19 19 19 19 19 19 19 19 18 18 18 18
30 30 30 31 32 31 30 30 31 32 31 30 28 27 26 24 23 22 22 21 21 21 21 20 20 20 19 19 19 19 19 19 19 19 19 19 19 19 19 19 19 18 18 18 18 18 18 18 18
30 30 30 30 30 31 30 29 30 31 31 29 28 27 25 24 23 22 22 21 20 20 20 19 19 19 19 19 19 19 19 19 19 19 19 19 19 19 18 18 18 18 18 18 18 18 17 17 17
29 30 29 29 28 28 29 28 30 31 30 29 27 25 25 24 23 22 22 21 20 19 19 19 18 18 18 18 18 18 18 18 18 18 18 18 18 18 18 18 18 18 17 17 17 17 17 16 17
29 29 29 28 28 27 28 28 29 31 28 26 25 24 24 24 23 22 22 21 20 19 19 18 18 18 18 18 18 18 18 18 18 18 18 18 18 17 17 17 17 17 17 17 16 16 16 16 16
29 28 28 28 28 26 27 26 27 28 27 26 25 25 24 24 23 23 22 21 20 20 19 18 18 17 17 17 17 17 17 17 17 17 17 17 17 17 17 17 16 16 16 16 16 16 16 16 16
28 27 26 26 26 26 25 24 26 27 27 27 26 26 25 24 24 23 22 21 21 20 19 18 18 17 16 16 16 16 16 16 16 16 16 16 16 16 16 16 16 16 16 15 15 15 15 15 15
27 27 25 24 25 26 27 27 28 28 27 27 26 25 25 24 24 23 22 22 21 20 19 18 17 17 16 16 16 16 16 16 15 16 16 16 16 16 16 15 15 15 15 15 15 15 15 15 15
27 27 27 26 25 25 27 28 27 27 27 27 26 26 25 25 24 23 23 22 21 20 19 18 17 16 15 15 15 15 15 15 15 15 15 15 15 15 15 15 15 14 14 14 14 14 14 14 15
28 28 27 25 24 24 26 27 26 25 26 26 26 26 25 25 24 23 23 22 20 19 18 17 16 16 15 15 15 14 14 14 14 14 14 14 14 14 14 14 14 14 14 14 14 14 14 14 14
28 27 27 26 25 24 23 25 28 27 27 27 26 26 25 25 24 23 22 21 20 19 18 17 16 15 15 14 14 14 14 14 13 13 13 13 13 13 13 13 13 13 13 13 13 14 14 14 14
28 27 26 25 24 24 24 25 28 28 27 27 26 26 25 24 24 23 22 21 20 18 18 16 16 15 14 14 13 13 13 13 13 13 13 12 12 12 12 12 13 13 13 13 13 13 13 13 13
Wind_Speed
10 12 10 6 5 5 3 14 16 15 14 14 11 8 14 17 11 9 13 18 24 23 22 22 20 19 17 17 16 15 14 14 13 11 10 9 8 7 7 6 5 6 6 6 6 7 7 6 6
11 14 9 5 3 4 7 14 14 13 11 11 8 9 15 15 12 13 15 19 24 22 21 21 21 19 17 16 15 15 14 13 13 11 10 9 8 7 6 5 4 4 4 4 4 4 4 4 4
11 14 6 5 2 1 9 12 11 11 11 9 9 13 11 10 10 12 17 21 23 20 20 22 21 19 18 16 15 14 14 13 12 11 10 9 8 7 7 6 5 4 4 3 3 3 3 3 3
8 7 6 7 2 3 10 9 8 11 10 8 8 11 11 7 7 14 19 20 22 20 21 23 21 19 18 16 15 14 13 13 12 11 10 9 9 8 7 7 6 5 5 4 3 3 3 3 4
10 7 10 6 3 6 9 8 7 11 8 9 10 16 11 8 13 18 17 20 20 20 21 22 21 20 18 16 15 14 14 13 12 11 10 9 9 8 8 8 7 6 6 5 5 5 5 5 6
7 9 11 5 3 3 8 6 4 8 6 7 7 15 9 10 14 16 17 17 19 21 21 21 21 20 18 16 15 14 14 13 12 11 10 9 8 8 8 8 8 8 7 7 6 7 7 7 8
11 13 15 10 6 3 6 5 5 5 6 10 6 10 10 13 13 14 14 14 18 21 21 18 19 18 17 16 15 14 14 13 12 11 10 10 9 9 9 9 9 9 9 8 8 8 9 10 11
10 11 18 13 6 4 7 2 2 4 7 7 4 7 11 15 15 15 13 12 15 20 20 17 17 17 16 15 15 15 14 13 12 11 11 11 10 11 12 12 13 12 11 11 11 11 12 13 14
12 11 15 11 6 6 7 3 1 3 4 3 3 10 16 19 17 16 12 11 12 16 17 17 17 15 16 16 17 16 14 14 13 12 13 12 12 14 15 17 17 17 15 14 14 14 15 15 17
9 12 15 8 9 8 6 4 5 3 4 5 6 12 18 17 16 16 14 13 12 13 15 15 16 15 14 14 16 15 15 15 15 14 15 14 14 13 14 19 21 20 19 17 17 18 17 16 15
13 16 18 13 9 8 9 8 6 7 3 5 4 11 16 17 15 15 14 13 12 10 12 12 14 12 13 9 12 11 12 14 16 16 16 15 13 13 12 10 15 18 18 16 16 17 15 15 13
15 16 15 12 12 10 10 11 9 9 4 5 4 6 13 15 15 15 13 11 13 12 12 12 12 10 8 7 8 8 8 8 10 16 17 13 7 6 6 4 9 12 12 12 11 8 12 12 11
11 14 16 13 12 12 13 14 13 12 6 2 1 3 8 12 13 14 15 13 13 12 11 10 10 10 7 6 4 8 7 8 9 11 16 13 7 8 7 4 3 4 5 4 4 4 4 4 6
12 11 13 14 14 14 15 14 15 14 9 4 4 5 7 9 11 12 14 14 13 15 14 12 11 10 8 7 5 5 5 5 6 6 12 15 9 5 5 5 4 3 4 4 2 3 3 4 5
10 13 16 18 18 16 13 15 16 15 8 5 5 6 6 5 6 9 11 12 13 14 13 11 11 10 10 9 9 8 7 7 6 5 9 12 11 7 5 4 4 4 4 2 1 3 3 5 6
13 15 18 20 16 9 7 12 12 9 6 4 5 4 1 4 2 3 6 8 8 9 10 11 12 13 11 10 8 8 8 7 5 6 7 10 11 9 5 5 5 4 3 2 3 3 3 4 5
17 17 18 17 9 7 9 10 5 1 2 3 4 3 1 4 2 2 1 4 6 5 6 8 8 9 11 11 9 9 7 7 5 4 4 6 10 10 5 6 5 3 3 3 5 3 3 4 5
11 13 12 10 3 3 6 11 10 4 2 3 4 3 5 6 6 5 5 5 3 1 3 4 6 5 5 7 8 8 9 8 6 6 4 5 6 8 6 5 6 5 4 4 4 4 3 4 5
12 13 13 11 5 4 8 14 15 8 3 2 2 6 7 8 9 9 8 6 6 5 3 1 2 4 5 5 7 8 9 8 7 7 7 6 6 7 6 6 6 6 5 5 5 4 4 4 4
9 10 12 12 6 6 10 15 15 11 8 4 2 3 4 6 6 6 6 7 8 7 7 5 4 4 5 5 6 6 7 7 7 7 7 6 7 7 8 7 6 7 6 6 6 5 4 4 4
10 9 10 11 11 11 15 18 19 17 11 8 7 4 5 5 5 5 5 5 6 7 7 6 6 6 6 6 6 7 6 7 8 8 7 8 8 7 7 8 7 6 6 6 7 6 6 5 4
9 10 11 12 14 15 17 18 16 10 11 10 7 6 6 6 5 4 4 5 5 5 6 5 5 6 6 6 6 7 8 9 9 7 7 7 8 9 8 8 8 7 6 7 7 7 5 5 5
10 12 12 15 16 18 19 18 17 9 6 10 9 6 4 3 3 3 3 3 4 5 5 5 5 5 6 6 7 7 8 8 7 7 7 6 7 8 8 8 7 6 7 7 7 5 5 5 5
8 11 15 17 16 19 14 13 11 4 9 14 11 8 5 2 0 1 2 2 2 4 4 4 4 5 5 6 7 7 8 9 10 9 8 6 5 6 8 8 7 7 7 7 6 6 5 5 4
7 9 9 9 8 7 3 6 8 6 10 11 9 6 3 1 2 2 2 3 4 4 4 4 5 5 5 6 7 7 7 8 9 9 8 6 5 5 7 8 7 7 6 5 5 5 5 5 5
6 8 8 9 12 14 12 9 1 10 10 7 5 2 3 5 4 3 4 4 4 5 4 5 6 5 6 6 6 6 6 6 6 6 6 5 4 4 5 6 7 7 7 6 5 5 5 5 5
7 7 9 10 14 16 12 8 7 7 4 3 4 5 6 6 5 6 6 5 5 6 6 6 6 5 5 6 6 5 5 5 5 6 5 4 3 3 2 3 5 6 5 5 4 4 4 3 2
10 9 8 7 10 13 13 11 3 4 5 5 5 6 6 6 7 6 5 4 3 4 4 5 5 5 5 6 6 5 4 4 4 4 3 3 3 3 2 1 1 2 3 3 3 2 2 2 2
9 9 9 9 9 12 15 12 9 5 2 4 7 9 8 8 8 6 5 4 4 5 5 4 4 3 4 5 5 5 4 3 3 3 3 4 4 4 4 3 2 1 1 1 2 1 2 3 3
9 9 10 10 11 12 15 16 10 5 4 7 9 10 9 9 8 7 5 4 4 5 5 4 3 3 3 3 3 2 2 2 2 3 4 4 4 4 4 4 4 3 1 1 2 3 5 6 7
Wind_Direction
252 251 244 263 269 278 30 61 53 55 60 64 46 38 54 51 53 88 129 133 122 127 136 139 138 138 139 140 141 142 144 145 144 143 142 141 138 135 130 122 114 106 101 98 97 98 102 106 111
274 267 256 255 300 323 62 69 64 58 59 75 64 41 66 64 72 112 131 124 122 128 140 141 140 140 140 140 142 143 144 146 147 147 147 148 151 152 150 145 139 131 121 115 113 114 118 124 132
267 263 268 243 202 152 75 80 84 74 58 56 78 63 53 68 82 116 125 129 126 133 140 139 144 142 143 144 144 145 146 147 150 152 154 157 160 163 164 163 162 161 155 150 145 142 148 160 174
273 263 236 257 280 100 77 89 92 87 79 58 64 78 72 64 98 121 133 134 131 138 138 144 148 147 148 150 151 151 151 152 155 158 162 167 170 172 173 175 176 180 181 184 186 190 195 202 212
266 265 264 277 327 64 72 63 76 85 66 59 71 86 83 93 109 125 143 138 142 141 137 148 151 152 154 157 159 159 159 160 162 165 169 174 179 183 183 184 187 194 200 207 213 218 222 224 230
278 275 288 315 302 63 67 51 38 72 79 92 80 99 97 118 123 143 148 149 149 139 138 148 154 156 160 164 167 167 166 167 169 171 175 180 185 191 193 195 200 206 213 220 225 228 233 234 236
278 296 294 281 245 144 68 12 27 46 52 55 30 96 122 133 140 148 143 163 149 139 138 150 157 161 166 170 173 174 174 176 178 181 185 190 195 201 205 208 211 215 220 225 231 234 238 240 241
280 293 291 287 260 110 83 358 12 18 71 62 12 73 136 142 151 145 155 173 144 137 142 155 159 163 169 176 181 183 184 186 189 193 197 201 207 213 216 217 217 219 222 227 233 239 243 245 245
270 270 277 307 324 84 83 340 44 64 115 110 69 66 126 145 154 148 161 173 148 144 147 159 161 167 176 182 183 186 191 196 198 203 208 212 218 218 216 222 217 216 220 225 232 239 244 248 250
246 265 274 329 346 360 23 331 352 291 193 166 144 114 130 149 157 157 168 175 163 155 154 164 163 172 184 192 173 185 194 196 204 208 204 210 226 234 227 214 212 213 218 224 230 237 243 246 251
251 263 284 310 327 331 319 317 323 303 340 51 99 143 148 157 163 167 176 180 163 168 168 170 162 174 187 195 166 189 198 191 200 216 208 208 221 229 233 203 200 210 217 224 231 232 236 239 239
250 271 286 298 310 314 303 301 299 298 339 65 62 129 156 168 174 177 177 183 167 181 185 181 164 172 201 204 183 188 200 191 195 203 209 207 212 231 233 213 193 201 211 213 226 217 218 231 244
255 268 277 277 276 279 278 278 282 277 288 53 86 184 180 182 181 180 177 187 175 183 193 186 170 170 196 233 232 200 205 204 200 198 199 211 208 210 225 226 212 234 244 213 215 238 235 238 251
279 278 276 280 274 268 268 270 270 266 253 223 209 214 213 199 181 181 178 181 182 185 196 191 179 175 185 211 233 260 237 214 225 204 194 200 213 212 212 206 198 223 259 276 264 264 272 266 264
276 281 273 262 251 248 256 265 263 261 247 238 249 231 210 186 179 183 177 177 190 188 192 184 181 185 188 209 219 231 242 243 222 220 210 196 204 213 208 217 203 210 236 258 274 286 295 283 281
256 255 258 257 236 230 239 270 280 264 223 241 273 279 174 118 179 186 163 170 194 190 181 182 197 193 190 202 218 231 238 240 233 215 213 202 206 214 202 210 216 212 218 225 238 245 261 273 283
244 243 254 256 197 224 240 270 288 311 271 273 283 290 3 103 114 66 92 180 194 184 173 179 204 201 192 201 214 234 251 256 260 243 216 203 202 212 207 215 217 214 222 237 255 252 257 268 275
297 288 263 261 206 205 266 280 284 270 255 297 326 16 40 52 53 44 24 9 32 102 168 179 196 219 206 208 220 230 242 246 244 251 244 222 210 210 209 216 217 219 229 230 235 253 258 264 269
323 316 317 310 344 346 300 290 286 284 263 257 20 49 54 53 47 35 24 11 10 16 4 284 248 253 248 241 236 235 238 242 245 243 239 229 223 215 209 225 214 213 224 232 234 240 252 256 262
289 288 288 285 291 292 282 279 277 269 252 217 150 105 87 78 65 51 33 19 13 7 1 353 333 299 275 261 259 257 262 262 254 251 245 228 218 215 219 219 223 217 217 222 227 225 234 254 253
282 286 301 318 323 303 287 274 264 245 220 180 171 148 116 99 77 55 41 26 7 2 354 350 346 329 314 299 283 278 273 264 262 253 241 231 226 218 220 224 226 226 223 226 222 218 223 235 247
294 324 329 314 302 292 291 291 287 262 194 172 142 119 101 90 79 56 36 24 1 350 344 348 344 335 327 316 301 289 277 271 269 269 259 247 232 228 225 223 222 224 224 228 229 222 222 230 246
303 316 305 291 283 280 276 276 278 276 181 132 113 119 104 84 75 48 19 12 350 336 334 333 338 334 328 320 308 297 290 285 285 281 272 259 244 235 230 225 223 223 226 227 228 232 224 226 239
292 293 285 271 263 266 286 304 294 14 114 127 142 153 153 156 59 53 342 332 312 308 311 315 319 318 317 312 309 304 299 297 295 289 278 265 248 238 234 228 220 220 224 221 218 218 225 227 238
290 302 303 304 290 282 336 286 278 112 126 138 151 163 170 256 294 292 301 294 287 291 308 314 310 312 317 315 313 311 308 301 293 293 287 279 264 247 230 222 217 219 218 216 214 208 219 230 234
293 288 295 313 314 316 303 275 281 122 116 118 133 186 251 269 276 294 294 292 305 319 335 331 325 322 322 319 314 312 310 304 307 312 307 295 283 270 244 226 219 218 216 214 205 214 219 223 228
289 289 306 302 293 293 298 318 86 90 112 170 203 226 251 267 282 295 297 306 320 329 335 327 321 325 325 321 316 313 317 316 314 314 312 313 316 297 282 244 228 223 217 214 205 213 224 219 218
253 278 287 286 298 302 304 319 26 171 222 238 251 266 276 288 290 293 304 314 327 326 317 313 321 327 334 328 324 322 330 330 325 326 341 352 358 2 5 0 281 239 215 202 195 222 206 178 138
262 264 287 299 294 298 301 304 318 322 302 305 304 300 295 293 297 306 320 330 329 323 318 323 324 329 333 330 330 322 323 343 357 19 34 40 35 31 31 23 7 314 234 175 165 189 127 109 92
277 286 289 283 288 293 291 294 312 0 335 302 297 301 310 308 300 297 305 321 325 320 311 310 308 310 311 318 324 334 1 28 42 50 49 45 47 40 35 33 28 356 343 83 117 118 106 100 93
Height
1498 1496 1496 1499 1497 1495 1487 1471 1467 1468 1469 1473 1475 1474 1476 1484 1492 1504 1505 1506 1507 1508 1512 1516 1519 1522 1525 1528 1530 1533 1535 1537 1539 1540 1542 1544 1545 1547 1548 1549 1550 1551 1552 1553 1554 1555 1555 1556 1556
1498 1497 1502 1500 1500 1509 1489 1473 1474 1474 1474 1476 1478 1477 1480 1490 1495 1501 1505 1508 1508 1509 1513 1517 1520 1523 1526 1528 1531 1533 1536 1538 1539 1541 1543 1544 1546 1547 1548 1550 1551 1552 1553 1554 1555 1555 1556 1556 1557
1499 1499 1501 1493 1497 1501 1486 1474 1474 1475 1477 1477 1479 1483 1488 1495 1499 1502 1506 1508 1509 1511 1515 1517 1521 1524 1527 1529 1532 1534 1536 1538 1540 1542 1543 1544 1546 1547 1548 1550 1551 1552 1553 1554 1555 1555 1556 1556 1557
1501 1500 1497 1489 1488 1478 1472 1471 1471 1474 1477 1479 1478 1484 1494 1499 1501 1503 1506 1509 1511 1513 1515 1518 1521 1525 1527 1529 1532 1534 1536 1538 1540 1542 1543 1545 1546 1547 1548 1549 1551 1552 1553 1554 1555 1555 1556 1556 1556
1503 1499 1489 1486 1481 1470 1468 1470 1472 1475 1478 1480 1480 1488 1497 1501 1502 1504 1507 1510 1512 1514 1515 1519 1522 1525 1527 1529 1532 1534 1536 1538 1540 1542 1543 1545 1546 1547 1548 1549 1550 1551 1552 1553 1554 1555 1555 1555 1556
1502 1492 1491 1491 1483 1471 1470 1474 1472 1475 1477 1480 1480 1487 1498 1502 1503 1506 1508 1511 1513 1514 1515 1519 1522 1525 1527 1529 1532 1534 1536 1538 1540 1542 1543 1544 1546 1547 1548 1549 1550 1551 1552 1553 1553 1554 1554 1555 1555
1502 1494 1490 1484 1480 1473 1474 1475 1475 1476 1479 1482 1483 1486 1497 1501 1504 1506 1509 1512 1514 1515 1515 1519 1522 1525 1527 1529 1531 1534 1536 1538 1540 1541 1543 1544 1545 1546 1547 1548 1549 1550 1551 1552 1553 1553 1553 1553 1553
1500 1496 1488 1478 1475 1473 1474 1476 1477 1478 1481 1484 1486 1486 1496 1501 1504 1507 1510 1512 1515 1515 1515 1519 1521 1524 1526 1529 1531 1533 1535 1537 1539 1540 1542 1543 1544 1545 1546 1547 1548 1549 1550 1551 1551 1551 1552 1552 1552
1500 1499 1492 1479 1473 1471 1474 1476 1476 1480 1482 1486 1487 1489 1493 1498 1503 1506 1510 1513 1515 1516 1516 1518 1520 1523 1525 1528 1530 1532 1534 1536 1538 1539 1540 1542 1543 1544 1545 1546 1547 1548 1549 1549 1549 1549 1549 1549 1549
1495 1495 1484 1475 1473 1472 1475 1477 1477 1478 1478 1483 1486 1491 1494 1499 1502 1505 1508 1511 1514 1516 1517 1519 1519 1522 1524 1527 1529 1531 1533 1534 1536 1537 1538 1540 1541 1542 1543 1544 1545 1545 1546 1546 1547 1547 1547 1547 1546
1491 1489 1481 1477 1477 1477 1478 1477 1479 1477 1478 1482 1485 1489 1493 1497 1501 1504 1507 1510 1512 1515 1517 1519 1519 1521 1524 1527 1527 1529 1531 1532 1533 1535 1536 1538 1539 1540 1542 1542 1542 1543 1543 1544 1544 1544 1544 1544 1544
1488 1486 1483 1481 1481 1482 1482 1481 1480 1480 1481 1484 1487 1489 1493 1496 1499 1502 1505 1509 1510 1513 1516 1518 1519 1519 1522 1525 1527 1528 1530 1531 1531 1532 1534 1535 1536 1538 1540 1541 1541 1540 1541 1541 1541 1542 1542 1542 1543
1486 1486 1484 1483 1484 1484 1484 1482 1481 1480 1481 1484 1487 1490 1492 1495 1497 1500 1503 1507 1509 1511 1513 1515 1517 1517 1519 1522 1525 1526 1528 1530 1530 1530 1531 1532 1534 1535 1536 1538 1538 1539 1540 1540 1539 1540 1540 1540 1540
1487 1485 1484 1482 1481 1481 1481 1480 1480 1478 1479 1482 1485 1489 1491 1493 1495 1498 1501 1504 1507 1508 1511 1513 1514 1515 1516 1519 1521 1523 1525 1527 1528 1529 1528 1528 1530 1532 1533 1533 1534 1534 1535 1536 1536 1536 1536 1536 1536
1490 1489 1485 1480 1477 1476 1478 1479 1476 1476 1476 1479 1483 1485 1488 1491 1494 1496 1499 1502 1505 1506 1508 1510 1511 1512 1513 1515 1517 1520 1521 1523 1524 1525 1526 1526 1526 1527 1528 1529 1529 1529 1530 1530 1531 1531 1531 1531 1532
1487 1488 1486 1472 1468 1471 1480 1485 1473 1471 1474 1479 1482 1484 1487 1490 1493 1496 1498 1500 1503 1505 1507 1508 1510 1511 1511 1512 1514 1516 1518 1520 1521 1522 1522 1522 1522 1523 1523 1524 1524 1525 1525 1526 1526 1527 1526 1526 1527
1485 1487 1480 1467 1462 1467 1473 1479 1472 1473 1475 1479 1482 1485 1487 1490 1493 1495 1498 1500 1502 1504 1505 1506 1508 1510 1510 1510 1511 1512 1514 1515 1516 1517 1518 1518 1517 1518 1519 1519 1520 1521 1521 1521 1522 1522 1522 1522 1522
1484 1476 1471 1467 1461 1467 1475 1477 1473 1473 1476 1479 1483 1486 1488 1491 1495 1496 1498 1500 1501 1502 1503 1504 1505 1507 1507 1507 1508 1508 1509 1510 1511 1512 1513 1513 1513 1513 1513 1514 1515 1516 1516 1517 1517 1516 1517 1517 1518
1482 1482 1479 1471 1465 1474 1480 1480 1474 1472 1475 1480 1484 1488 1491 1494 1496 1497 1498 1500 1500 1501 1501 1502 1503 1503 1504 1504 1504 1504 1504 1505 1506 1506 1507 1508 1508 1508 1509 1509 1509 1509 1510 1511 1511 1511 1511 1511 1513
1485 1487 1484 1474 1469 1476 1481 1480 1473 1471 1474 1478 1484 1488 1492 1495 1497 1499 1500 1500 1500 1500 1500 1500 1500 1500 1500 1500 1500 1500 1500 1500 1501 1501 1501 1502 1502 1502 1503 1503 1504 1504 1504 1504 1505 1505 1505 1505 1507
1485 1485 1484 1483 1477 1476 1480 1481 1472 1467 1470 1476 1483 1488 1492 1496 1498 1500 1501 1501 1501 1500 1500 1499 1498 1497 1497 1496 1496 1496 1495 1495 1495 1495 1495 1495 1496 1496 1496 1497 1497 1497 1497 1498 1498 1499 1499 1500 1501
1491 1483 1485 1487 1492 1492 1485 1492 1472 1462 1466 1474 1483 1489 1493 1496 1499 1501 1502 1502 1501 1500 1499 1498 1496 1495 1494 1493 1492 1491 1490 1489 1489 1489 1489 1489 1489 1490 1490 1490 1490 1491 1491 1492 1492 1492 1493 1494 1496
1489 1486 1488 1489 1492 1493 1486 1488 1474 1459 1467 1477 1486 1493 1496 1497 1499 1500 1501 1501 1501 1500 1498 1497 1495 1493 1492 1490 1489 1488 1486 1485 1484 1484 1483 1482 1483 1483 1483 1483 1484 1484 1484 1486 1486 1487 1487 1489 1490
1487 1489 1488 1485 1487 1499 1488 1492 1483 1470 1472 1480 1487 1491 1495 1496 1498 1499 1499 1500 1499 1498 1496 1495 1493 1491 1489 1487 1486 1484 1482 1480 1479 1478 1477 1477 1477 1477 1477 1477 1477 1478 1479 1479 1480 1481 1483 1484 1485
1489 1498 1506 1504 1499 1499 1493 1500 1487 1472 1472 1476 1483 1487 1491 1493 1495 1496 1497 1497 1496 1495 1493 1492 1490 1487 1486 1484 1482 1480 1478 1476 1474 1473 1472 1471 1471 1471 1470 1470 1471 1472 1473 1474 1475 1476 1478 1479 1481
1493 1498 1513 1522 1514 1499 1485 1484 1471 1467 1472 1478 1482 1486 1488 1490 1491 1492 1493 1493 1493 1492 1490 1489 1487 1484 1482 1480 1478 1476 1474 1472 1470 1469 1467 1466 1466 1465 1465 1465 1466 1467 1468 1469 1471 1473 1474 1476 1477
1494 1494 1491 1502 1502 1502 1487 1473 1473 1472 1475 1478 1481 1483 1484 1486 1487 1488 1489 1489 1489 1488 1487 1486 1483 1481 1479 1476 1474 1472 1470 1468 1466 1465 1463 1462 1461 1461 1461 1460 1461 1463 1464 1466 1467 1469 1471 1473 1475
1488 1488 1493 1502 1514 1514 1497 1485 1484 1480 1477 1476 1477 1479 1480 1482 1483 1484 1485 1486 1485 1485 1484 1482 1480 1478 1475 1473 1471 1468 1466 1464 1462 1461 1459 1458 1457 1457 1457 1458 1458 1459 1461 1463 1465 1467 1468 1471 1473
1486 1489 1491 1494 1498 1511 1512 1497 1470 1471 1472 1474 1475 1476 1477 1478 1479 1480 1481 1482 1482 1482 1481 1479 1477 1475 1472 1470 1467 1465 1463 1461 1459 1458 1456 1455 1455 1455 1455 1455 1456 1458 1460 1461 1463 1466 1467 1469 1471
1479 1486 1491 1503 1504 1500 1504 1495 1468 1469 1471 1472 1473 1474 1474 1475 1476 1477 1478 1478 1479 1479 1478 1476 1474 1472 1470 1468 1465 1463 1460 1459 1457 1456 1455 1454 1454 1454 1454 1455 1456 1458 1459 1461 1462 1465 1466 1468 1470